Location: Monteux
(44.0348°N, 4.9972°E)
Time: 20:17:33
(UTC+00:00)

X-37B - Pass Details

Date: 02 October 2021
Orbit: 385 x 389 km, 45.0° (Epoch: 13 October)

Event Time Altitude Azimuth Distance (km) Brightness Sun altitude
Exits shadow 04:52:50 13° 267° (W) 1,231 2.4 -9.1°
Maximum altitude 04:55:12 31° 207° (SSW) 703 1.6 -8.7°
Drops below altitude 10° 04:58:03 10° 143° (SE) 1,408 3.9 -8.2°
Sets 05:00:15 0° 133° (SE) 2,260 5.2 -7.8°
